FW8124 Weather Reports


Display with metric or nautical units.
time (UTC)temp
F
wind
direction
speed
MPH
gust
MPH
rain 1hr
in
rain 24hr
in
rain mn
in
humidity
%
barometer
mb
20260508090053 62 0 0.0 3.0 0.00 0.31 0.00 77 1013.8
20260508084558 61 90 2.0 4.0 0.00 0.31 0.00 77 1013.7
20260508083108 61 88 1.0 7.0 0.00 0.31 0.00 78 1013.4
20260508081605 61 104 0.0 2.0 0.00 0.31 0.00 78 1013.4
20260508080054 61 104 2.0 6.0 0.00 0.31 0.00 78 1013.5
20260508074601 61 112 2.0 6.0 0.00 0.31 0.00 78 1012.9
20260508073057 62 107 1.0 6.0 0.00 0.31 0.00 77 1012.5
20260508071555 62 114 2.0 6.0 0.00 0.31 0.00 77 1012.4
20260508070057 62 120 2.0 6.0 0.00 0.31 0.00 78 1012.5
20260508064555 61 93 2.0 7.0 0.00 0.31 0.00 80 1012.3
20260508063050 60 88 3.0 7.0 0.00 0.31 0.00 82 1012.3
20260508061552 58 100 2.0 4.0 0.00 0.31 0.00 84 1012.1
20260508060053 58 104 2.0 7.0 0.00 0.31 0.00 84 1011.9
20260508054552 57 101 3.0 7.0 0.00 0.31 0.00 84 1011.7
20260508053055 57 98 3.0 6.0 0.00 0.31 0.00 85 1011.6
20260508051556 57 105 2.0 4.0 0.00 0.31 0.00 85 1011.8
20260508050052 57 76 2.0 4.0 0.00 0.31 0.00 85 1011.5
20260508044554 57 82 1.0 4.0 0.00 0.31 0.00 85 1011.3
20260508043105 57 81 0.0 3.0 0.00 0.31 0.00 85 1011.3
20260508041552 57 0 0.0 2.0 0.00 0.31 0.00 85 1011.2
20260508040057 57 0 0.0 1.0 0.00 0.31 0.00 85 1011.2
20260508034553 57 0 0.0 3.0 0.00 0.31 0.00 85 1010.8
20260508033054 57 0 0.0 2.0 0.00 0.31 0.00 85 1010.9
20260508031552 57 83 2.0 3.0 0.00 0.31 0.00 85 1011.1
20260508030049 57 82 0.0 4.0 0.00 0.31 0.00 85 1011.5
20260508024552 57 82 2.0 6.0 0.00 0.31 0.00 86 1011.5
20260508023049 56 93 1.0 4.0 0.00 0.31 0.00 86 1011.5
20260508021552 57 92 2.0 6.0 0.00 0.31 0.00 86 1011.7
20260508020053 57 101 2.0 4.0 0.00 0.31 0.00 86 1011.7
20260508014552 56 103 2.0 4.0 0.00 0.31 0.00 86 1011.7
20260508013049 57 103 2.0 4.0 0.00 0.31 0.00 86 1011.9
20260508011552 57 100 2.0 4.0 0.00 0.31 0.00 86 1012.1
20260508010050 57 104 2.0 4.0 0.00 0.31 0.00 86 1012.3
20260508004549 57 108 3.0 7.0 0.00 0.31 0.00 86 1012.4
20260508003052 57 104 3.0 7.0 0.00 0.31 0.00 86 1012.8
20260508001551 57 101 1.0 4.0 0.00 0.31 0.00 86 1012.9
20260508000051 57 108 1.0 3.0 0.00 0.31 0.00 86 1013.1
20260507234550 57 108 2.0 3.0 0.00 0.31 0.00 86 1013.1
20260507233053 58 113 2.0 4.0 0.00 0.31 0.00 86 1013.2
20260507231554 58 97 2.0 4.0 0.00 0.31 0.00 86 1013.2
20260507224556 58 89 1.0 4.0 0.00 0.31 0.00 86 1013.3
20260507223057 58 90 1.0 4.0 0.00 0.31 0.00 86 1013.4
20260507221556 59 94 2.0 4.0 0.00 0.31 0.00 86 1013.3
20260507220054 59 148 1.0 3.0 0.00 0.31 0.00 86 1013.0
20260507214616 59 122 1.0 3.0 0.00 0.31 0.31 86 1012.9
20260507213106 58 120 2.0 4.0 0.00 0.31 0.31 86 1012.9
20260507211606 59 130 2.0 7.0 0.00 0.31 0.31 85 1013.0
20260507210056 58 112 2.0 6.0 0.00 0.31 0.31 85 1012.9
20260507204606 59 121 2.0 4.0 0.00 0.31 0.31 85 1012.9
20260507203059 59 109 1.0 7.0 0.00 0.31 0.31 85 1012.7
20260507201553 59 162 1.0 7.0 0.00 0.31 0.31 85 1012.7
20260507200054 59 194 2.0 7.0 0.00 0.31 0.31 85 1012.7
20260507194633 59 0 1.0 7.0 0.00 0.31 0.31 85 1012.3
20260507193053 59 159 1.0 5.0 0.00 0.31 0.31 85 1011.9
20260507191555 58 0 2.0 7.0 0.00 0.31 0.31 85 1011.7
20260507190051 59 161 3.0 8.0 0.00 0.31 0.31 85 1011.6
20260507184605 59 146 2.0 12.0 0.03 0.31 0.31 85 1011.5
20260507183055 60 120 3.0 8.0 0.10 0.31 0.31 85 1011.3
20260507181551 59 109 5.0 11.0 0.13 0.31 0.31 84 1011.2
20260507180057 60 123 4.0 11.0 0.14 0.31 0.31 84 1011.0
20260507174555 60 82 5.0 11.0 0.14 0.28 0.28 83 1010.9
20260507173051 62 102 3.0 6.0 0.09 0.21 0.21 83 1010.8
20260507171554 62 145 0.0 4.0 0.07 0.18 0.18 82 1010.8
20260507170052 62 0 0.0 2.0 0.06 0.15 0.15 82 1010.6
20260507164549 62 0 0.0 5.0 0.03 0.13 0.13 81 1010.7
20260507163106 63 217 2.0 5.0 0.02 0.11 0.11 81 1010.3
20260507161555 63 219 2.0 6.0 0.00 0.10 0.10 81 1010.3
20260507160052 63 232 2.0 4.0 0.00 0.09 0.09 82 1010.3
20260507154559 62 280 3.0 8.0 0.00 0.09 0.09 82 1010.1
20260507153054 63 273 6.0 10.0 0.00 0.09 0.09 83 1010.0
20260507151554 64 265 7.0 13.0 0.00 0.09 0.09 83 1010.1
20260507150057 65 213 4.0 8.0 0.00 0.09 0.09 84 1010.1
20260507144551 64 184 4.0 7.0 0.00 0.09 0.09 84 1010.0
20260507143101 65 201 2.0 5.0 0.00 0.09 0.09 84 1010.0
20260507141552 64 130 1.0 8.0 0.03 0.09 0.09 83 1010.1
20260507140053 63 0 0.0 6.0 0.05 0.09 0.09 84 1010.1
20260507134550 61 104 3.0 7.0 0.07 0.09 0.09 83 1010.0
20260507133100 60 0 2.0 6.0 0.07 0.08 0.08 82 1010.5
20260507131610 59 274 3.0 16.0 0.06 0.06 0.06 81 1010.7
20260507130052 60 325 10.0 26.0 0.03 0.03 0.03 81 1010.8
20260507124553 65 231 6.0 15.0 0.02 0.02 0.02 81 1010.8
20260507123055 65 187 6.0 12.0 0.00 0.00 0.00 80 1010.9
20260507121554 65 234 6.0 14.0 0.00 0.00 0.00 78 1010.8
20260507120058 65 204 7.0 13.0 0.00 0.00 0.00 77 1010.9
20260507114558 65 202 7.0 17.0 0.00 0.00 0.00 77 1011.3
20260507113100 65 171 7.0 16.0 0.00 0.00 0.00 77 1011.0
20260507111553 66 203 8.0 17.0 0.00 0.00 0.00 77 1011.1
20260507110053 66 198 8.0 16.0 0.00 0.00 0.00 77 1011.2
20260507104556 66 174 6.0 17.0 0.00 0.00 0.00 78 1011.4
20260507103055 65 208 7.0 16.0 0.00 0.00 0.00 79 1011.4
20260507101554 65 226 8.0 15.0 0.00 0.00 0.00 79 1011.4
20260507100049 65 198 6.0 16.0 0.00 0.00 0.00 79 1011.4
20260507094554 65 173 9.0 15.0 0.00 0.00 0.00 78 1011.3
20260507093055 65 222 7.0 18.0 0.00 0.00 0.00 77 1011.3
20260507091556 65 243 9.0 15.0 0.00 0.00 0.00 76 1011.6